When you browse on this site, cookies collect data to enhance your experience and personalize the content and advertising you see.
Visit our Privacy Policy to learn more. By continuing to use the site, you agree to this use of cookies and data.
  • In United Kingdom
  • List of Countries
  • For 7 days
  • Water Temperature
  • Weather Map
  • Weather Widgets
  • user-avatar
    Login

    Hourly Weather Cardiff

    Today, 18 August, Sunday

    Time Temperature Precipitation Wind Pressure Humidity
    00:00 +13°C° 0 mm 4 mps 751 mmHg 91%
    01:00 +13°C° 0.2 mm 4 mps 750 mmHg 92%
    02:00 +13°C° 0.2 mm 4 mps 750 mmHg 92%
    03:00 +14°C° 0.2 mm 4 mps 750 mmHg 93%
    04:00 +13°C° 0.5 mm 4 mps 749 mmHg 93%
    05:00 +13°C° 0.5 mm 4 mps 749 mmHg 93%
    06:00 +13°C° 0 mm 5 mps 750 mmHg 92%
    07:00 +14°C° 0.5 mm 6 mps 750 mmHg 88%
    08:00 +15°C° 0.5 mm 7 mps 750 mmHg 84%
    09:00 +16°C° 0.5 mm 8 mps 751 mmHg 81%
    10:00 +16°C° 0.1 mm 8 mps 751 mmHg 77%
    11:00 +17°C° 0.1 mm 8 mps 751 mmHg 74%
    12:00 +18°C° 0.1 mm 9 mps 751 mmHg 70%
    13:00 +17°C° 0.2 mm 9 mps 752 mmHg 72%
    14:00 +17°C° 0.2 mm 9 mps 752 mmHg 73%
    15:00 +17°C° 0.2 mm 9 mps 752 mmHg 74%
    16:00 +16°C° 0 mm 9 mps 752 mmHg 74%
    17:00 +16°C° 0 mm 9 mps 752 mmHg 74%
    18:00 +15°C° 0 mm 8 mps 753 mmHg 75%
    19:00 +15°C° 0.1 mm 8 mps 753 mmHg 78%
    20:00 +13°C° 0.1 mm 8 mps 753 mmHg 81%
    21:00 +12°C° 0.1 mm 7 mps 754 mmHg 83%
    22:00 +12°C° 0.2 mm 7 mps 754 mmHg 86%
    23:00 +12°C° 0.2 mm 7 mps 754 mmHg 88%

    Tomorrow, 19 August, Monday

    Time Temperature Precipitation Wind Pressure Humidity
    00:00 +12°C° 0.2 mm 7 mps 755 mmHg 90%
    01:00 +12°C° 0.2 mm 7 mps 755 mmHg 90%
    02:00 +12°C° 0.2 mm 7 mps 755 mmHg 91%
    03:00 +13°C° 0.2 mm 6 mps 755 mmHg 91%
    04:00 +13°C° 0.2 mm 5 mps 756 mmHg 92%
    05:00 +12°C° 0.2 mm 4 mps 756 mmHg 93%
    06:00 +12°C° 0.2 mm 3 mps 756 mmHg 94%
    07:00 +13°C° 0 mm 3 mps 757 mmHg 88%
    08:00 +14°C° 0 mm 4 mps 757 mmHg 83%
    09:00 +17°C° 0 mm 4 mps 758 mmHg 78%
    10:00 +16°C° 0.2 mm 5 mps 758 mmHg 77%
    11:00 +16°C° 0.2 mm 6 mps 758 mmHg 76%
    12:00 +17°C° 0.2 mm 8 mps 758 mmHg 75%
    13:00 +17°C° 0 mm 8 mps 759 mmHg 71%
    14:00 +17°C° 0 mm 8 mps 759 mmHg 68%
    15:00 +17°C° 0 mm 8 mps 759 mmHg 65%
    16:00 +16°C° 0 mm 8 mps 760 mmHg 68%
    17:00 +16°C° 0 mm 7 mps 760 mmHg 72%
    18:00 +15°C° 0 mm 7 mps 760 mmHg 75%
    19:00 +14°C° 0 mm 6 mps 760 mmHg 79%
    20:00 +13°C° 0 mm 6 mps 761 mmHg 83%
    21:00 +12°C° 0 mm 5 mps 761 mmHg 88%
    22:00 +12°C° 0 mm 5 mps 762 mmHg 89%
    23:00 +11°C° 0 mm 4 mps 762 mmHg 89%

    Day after tomorrow, 20 August, Tuesday

    Time Temperature Precipitation Wind Pressure Humidity
    00:00 +11°C° 0 mm 4 mps 762 mmHg 90%
    01:00 +10°C° 0 mm 4 mps 762 mmHg 91%
    02:00 +10°C° 0 mm 3 mps 762 mmHg 91%
    03:00 +10°C° 0 mm 3 mps 763 mmHg 92%
    04:00 +10°C° 0 mm 3 mps 763 mmHg 92%
    05:00 +9°C° 0 mm 3 mps 763 mmHg 91%
    06:00 +9°C° 0 mm 3 mps 764 mmHg 91%
    07:00 +11°C° 0 mm 4 mps 764 mmHg 84%
    08:00 +13°C° 0 mm 4 mps 764 mmHg 77%
    09:00 +14°C° 0 mm 4 mps 765 mmHg 70%
    10:00 +15°C° 0 mm 5 mps 765 mmHg 69%
    11:00 +16°C° 0 mm 5 mps 765 mmHg 68%
    12:00 +16°C° 0 mm 6 mps 766 mmHg 67%
    13:00 +16°C° 0 mm 6 mps 766 mmHg 68%
    14:00 +17°C° 0 mm 6 mps 766 mmHg 69%
    15:00 +17°C° 0 mm 6 mps 766 mmHg 70%
    16:00 +17°C° 0 mm 6 mps 766 mmHg 74%
    17:00 +16°C° 0 mm 6 mps 766 mmHg 78%
    18:00 +16°C° 0 mm 6 mps 766 mmHg 81%
    19:00 +15°C° 0 mm 5 mps 766 mmHg 85%
    20:00 +14°C° 0 mm 4 mps 767 mmHg 89%
    21:00 +13°C° 0 mm 4 mps 767 mmHg 92%
    22:00 +13°C° 0 mm 4 mps 767 mmHg 93%
    23:00 +13°C° 0 mm 3 mps 767 mmHg 93%

    21 August, Wednesday

    Time Temperature Precipitation Wind Pressure Humidity
    00:00 +13°C° 0 mm 3 mps 767 mmHg 94%
    01:00 +13°C° 0 mm 3 mps 767 mmHg 94%
    02:00 +13°C° 0 mm 3 mps 767 mmHg 94%
    03:00 +13°C° 0 mm 3 mps 767 mmHg 95%
    04:00 +13°C° 0 mm 3 mps 767 mmHg 95%
    05:00 +13°C° 0 mm 3 mps 767 mmHg 95%
    06:00 +14°C° 0 mm 2 mps 767 mmHg 95%
    07:00 +14°C° 0 mm 3 mps 767 mmHg 90%
    08:00 +16°C° 0 mm 3 mps 767 mmHg 84%
    09:00 +17°C° 0 mm 4 mps 767 mmHg 79%
    10:00 +18°C° 0 mm 4 mps 767 mmHg 75%
    11:00 +19°C° 0 mm 4 mps 766 mmHg 71%
    12:00 +19°C° 0 mm 5 mps 766 mmHg 67%
    13:00 +19°C° 0.1 mm 5 mps 766 mmHg 68%
    14:00 +19°C° 0.1 mm 5 mps 766 mmHg 69%
    15:00 +19°C° 0.1 mm 5 mps 766 mmHg 69%
    16:00 +17°C° 0 mm 5 mps 766 mmHg 72%
    17:00 +17°C° 0 mm 5 mps 766 mmHg 75%
    18:00 +16°C° 0 mm 5 mps 765 mmHg 78%
    19:00 +15°C° 0 mm 5 mps 766 mmHg 82%
    20:00 +14°C° 0 mm 4 mps 766 mmHg 86%
    21:00 +13°C° 0 mm 4 mps 766 mmHg 90%
    22:00 +14°C° 0 mm 4 mps 766 mmHg 89%
    23:00 +14°C° 0 mm 5 mps 766 mmHg 88%

    22 August, Thursday

    Time Temperature Precipitation Wind Pressure Humidity
    00:00 +14°C° 0 mm 5 mps 766 mmHg 88%
    01:00 +14°C° 0 mm 5 mps 766 mmHg 90%
    02:00 +13°C° 0 mm 5 mps 765 mmHg 91%
    03:00 +13°C° 0 mm 4 mps 765 mmHg 93%
    04:00 +14°C° 0.1 mm 4 mps 765 mmHg 93%
    05:00 +14°C° 0.1 mm 4 mps 765 mmHg 93%
    06:00 +14°C° 0.1 mm 4 mps 766 mmHg 93%
    07:00 +15°C° 0.1 mm 4 mps 766 mmHg 91%
    08:00 +17°C° 0.1 mm 4 mps 766 mmHg 88%
    09:00 +17°C° 0.1 mm 3 mps 766 mmHg 86%
    10:00 +18°C° 0.2 mm 4 mps 766 mmHg 83%
    11:00 +19°C° 0.2 mm 4 mps 766 mmHg 81%
    12:00 +20°C° 0.2 mm 5 mps 766 mmHg 78%
    13:00 +20°C° 0.2 mm 5 mps 766 mmHg 78%
    14:00 +20°C° 0.2 mm 5 mps 766 mmHg 77%
    15:00 +20°C° 0.2 mm 5 mps 766 mmHg 77%
    16:00 +20°C° 0.1 mm 5 mps 766 mmHg 79%
    17:00 +19°C° 0.1 mm 5 mps 765 mmHg 82%
    18:00 +18°C° 0.1 mm 4 mps 765 mmHg 84%
    19:00 +18°C° 0 mm 4 mps 765 mmHg 88%
    20:00 +17°C° 0 mm 3 mps 766 mmHg 91%
    21:00 +16°C° 0 mm 2 mps 766 mmHg 94%
    22:00 +15°C° 0 mm 2 mps 766 mmHg 95%
    23:00 +15°C° 0 mm 2 mps 766 mmHg 95%

    23 August, Friday

    Time Temperature Precipitation Wind Pressure Humidity
    00:00 +15°C° 0 mm 1 mps 766 mmHg 95%
    01:00 +14°C° 0 mm 1 mps 765 mmHg 96%
    02:00 +14°C° 0 mm 1 mps 765 mmHg 96%
    03:00 +14°C° 0 mm 1 mps 764 mmHg 96%
    04:00 +14°C° 0 mm 1 mps 764 mmHg 95%
    05:00 +14°C° 0 mm 1 mps 764 mmHg 95%
    06:00 +15°C° 0 mm 1 mps 764 mmHg 94%
    07:00 +16°C° 0 mm 2 mps 764 mmHg 88%
    08:00 +17°C° 0 mm 2 mps 765 mmHg 81%
    09:00 +18°C° 0 mm 2 mps 765 mmHg 75%
    10:00 +19°C° 0 mm 2 mps 764 mmHg 69%
    11:00 +20°C° 0 mm 2 mps 764 mmHg 63%
    12:00 +21°C° 0 mm 2 mps 764 mmHg 57%
    13:00 +23°C° 0 mm 2 mps 764 mmHg 58%
    14:00 +23°C° 0 mm 2 mps 764 mmHg 59%
    15:00 +24°C° 0 mm 2 mps 763 mmHg 60%
    16:00 +23°C° 0 mm 2 mps 763 mmHg 65%
    17:00 +21°C° 0 mm 2 mps 763 mmHg 69%
    18:00 +21°C° 0 mm 2 mps 763 mmHg 74%
    19:00 +19°C° 0 mm 2 mps 763 mmHg 78%
    20:00 +17°C° 0 mm 2 mps 763 mmHg 81%
    21:00 +16°C° 0 mm 1 mps 763 mmHg 85%
    22:00 +15°C° 0 mm 1 mps 763 mmHg 85%
    23:00 +15°C° 0 mm 1 mps 762 mmHg 85%
    Show more